User: anonymous   Login
Location: Unspecified
(42.1900°N, 71.3291°W)
Time: 23:41:14
(UTC-04:00)
Language:

Resurs 1-4 Rocket - Orbit

View from above orbital plane
View from above orbital plane
View from above satellite
View from above satellite

Ground track
Ground track

The orbit data is extracted from the following two-line orbital elements,

1 25400U 98043G   17117.88445120 -.00000011 +00000-0 +13374-4 0  9999
2 25400 098.4842 067.7241 0011048 083.5888 276.6549 14.25408875977689
Epoch (UTC): 27 April 2017 21:13:36
Eccentricity: 0.0011048
inclination: 98.4842°
perigee height: 799 km
apogee height: 815 km
right ascension of ascending node: 67.7241°
argument of perigee: 83.5888°
revolutions per day: 14.25408875
mean anomaly at epoch: 276.6549°
orbit number at epoch: 97768

The dashed part of the orbit path shows where the satellite is in the earth's shadow,  

DLR